DW4438 Weather Reports


time (UTC)temp
F
wind
direction
speed
knots
gust
knots
rain 1hr
in
rain 24hr
in
rain mn
in
humidity
%
barometer
mb
20260507075555 56 41 0.0 0.9 0.00 0.00 0.00 73 1017.7
20260507075037 56 41 0.0 0.9 0.00 0.00 0.00 73 1017.8
20260507074510 56 43 0.0 1.7 0.00 0.00 0.00 73 1017.6
20260507074030 56 43 0.0 1.7 0.00 0.00 0.00 74 1017.8
20260507073506 56 43 0.0 0.0 0.00 0.00 0.00 74 1017.7
20260507073045 56 43 0.0 0.9 0.00 0.00 0.00 73 1017.8
20260507072559 56 43 0.0 1.7 0.00 0.00 0.00 73 1017.8
20260507072501 56 43 0.0 1.7 0.00 0.00 0.00 73 1017.8
20260507072038 56 43 0.0 1.7 0.00 0.00 0.00 73 1017.9
20260507071521 56 43 0.0 0.9 0.00 0.00 0.00 73 1018.0
20260507071051 56 43 0.0 0.9 0.00 0.00 0.00 73 1018.0
20260507070533 56 43 0.0 0.0 0.00 0.00 0.00 72 1018.0
20260507070018 56 43 0.0 0.9 0.00 0.00 0.00 72 1018.0
20260507065539 57 43 0.0 1.7 0.00 0.00 0.00 72 1018.1
20260507065003 57 43 0.0 2.6 0.00 0.00 0.00 72 1018.0
20260507064546 57 43 0.9 2.6 0.00 0.00 0.00 71 1018.0
20260507064015 57 45 0.0 2.6 0.00 0.00 0.00 71 1018.1
20260507063535 57 46 0.0 3.5 0.00 0.00 0.00 71 1018.1
20260507063016 57 47 0.9 3.5 0.00 0.00 0.00 71 1018.1
20260507062550 57 43 0.0 2.6 0.00 0.00 0.00 71 1018.1
20260507062014 57 43 0.0 4.3 0.00 0.00 0.00 71 1018.0
20260507061546 57 45 0.9 4.3 0.00 0.00 0.00 71 1018.0
20260507061101 58 45 0.9 2.6 0.00 0.00 0.00 71 1018.0
20260507061005 58 41 0.9 2.6 0.00 0.00 0.00 71 1018.0
20260507060542 58 41 0.0 2.6 0.00 0.00 0.00 71 1018.0
20260507060032 58 42 0.0 2.6 0.00 0.00 0.00 71 1018.0
20260507055540 58 42 0.9 2.6 0.00 0.00 0.00 71 1018.1
20260507055019 58 42 0.0 2.6 0.00 0.00 0.00 70 1018.1
20260507054555 58 42 0.0 3.5 0.00 0.00 0.00 70 1018.1
20260507054020 58 34 0.0 2.6 0.00 0.00 0.00 70 1018.0
20260507053550 58 45 0.0 1.7 0.00 0.00 0.00 70 1018.0
20260507053029 58 45 0.0 1.7 0.00 0.00 0.00 70 1018.0
20260507052545 59 45 0.0 2.6 0.00 0.00 0.00 70 1018.0
20260507052028 59 45 0.0 2.6 0.00 0.00 0.00 69 1018.0
20260507051504 59 44 0.0 1.7 0.00 0.00 0.00 69 1018.0
20260507051035 59 44 0.0 3.5 0.00 0.00 0.00 69 1018.0
20260507050511 59 44 0.0 3.5 0.00 0.00 0.00 69 1018.0
20260507050057 59 44 0.0 2.6 0.00 0.00 0.00 69 1018.1
20260507045512 59 44 0.0 2.6 0.00 0.00 0.00 68 1018.0
20260507045032 59 44 0.0 2.6 0.00 0.00 0.00 68 1018.0
20260507044518 60 44 0.0 3.5 0.00 0.00 0.00 68 1017.9
20260507044031 60 45 0.9 4.3 0.00 0.00 0.00 67 1017.9
20260507043517 60 38 1.7 4.3 0.00 0.00 0.00 67 1017.8
20260507043051 60 47 1.7 6.1 0.00 0.00 0.00 67 1017.8
20260507042514 60 64 1.7 6.1 0.00 0.00 0.00 67 1017.8
20260507042047 60 69 1.7 3.5 0.00 0.00 0.00 66 1017.7
20260507041512 61 38 0.9 3.5 0.00 0.00 0.00 66 1017.6
20260507041044 61 60 0.9 3.5 0.00 0.00 0.00 66 1017.5
20260507040520 61 50 0.9 5.2 0.00 0.00 0.00 65 1017.5
20260507040037 61 45 2.6 5.2 0.00 0.00 0.00 65 1017.5
20260507035515 62 47 1.7 4.3 0.00 0.00 0.00 64 1017.4
20260507035036 62 42 0.9 4.3 0.00 0.00 0.00 64 1017.4
20260507034511 62 41 0.9 6.1 0.00 0.00 0.00 63 1017.3
20260507034031 62 56 2.6 6.1 0.00 0.00 0.00 63 1017.2
20260507033512 63 56 2.6 5.2 0.00 0.00 0.00 63 1017.1
20260507033047 63 54 1.7 6.1 0.00 0.00 0.00 62 1017.1
20260507032510 63 16 2.6 6.1 0.00 0.00 0.00 62 1017.0
20260507032043 63 58 1.7 7.0 0.00 0.00 0.00 62 1017.0
20260507031600 63 45 3.5 7.0 0.00 0.00 0.00 61 1017.0
20260507031505 63 45 1.7 7.0 0.00 0.00 0.00 61 1016.9
20260507031043 64 41 2.6 6.1 0.00 0.00 0.00 61 1016.9
20260507030517 64 34 2.6 7.0 0.00 0.00 0.00 60 1016.8
20260507030038 64 45 3.5 7.8 0.00 0.00 0.00 59 1016.8
20260507025512 64 37 2.6 7.8 0.00 0.00 0.00 59 1016.7
20260507025032 65 50 1.7 6.1 0.00 0.00 0.00 58 1016.7
20260507024518 65 58 3.5 7.0 0.00 0.00 0.00 58 1016.6
20260507024100 65 40 3.5 7.0 0.00 0.00 0.00 57 1016.6
20260507023531 66 43 2.6 7.0 0.00 0.00 0.00 57 1016.5
20260507023008 66 65 3.5 7.0 0.00 0.00 0.00 56 1016.5
20260507022540 67 44 3.5 7.0 0.00 0.00 0.00 56 1016.4
20260507022015 67 56 3.5 7.8 0.00 0.00 0.00 55 1016.4
20260507021602 67 59 4.3 7.8 0.00 0.00 0.00 55 1016.4
20260507021016 68 47 3.5 7.8 0.00 0.00 0.00 54 1016.4
20260507020550 68 51 2.6 7.8 0.00 0.00 0.00 54 1016.3
20260507020027 68 29 3.5 9.6 0.00 0.00 0.00 54 1016.2
20260507015545 69 38 4.3 9.6 0.00 0.00 0.00 53 1016.2
20260507015026 69 24 5.2 8.7 0.00 0.00 0.00 53 1016.1
20260507014558 69 50 4.3 8.7 0.00 0.00 0.00 52 1016.1
20260507014040 70 52 4.3 7.8 0.00 0.00 0.00 52 1016.1
20260507013516 70 69 2.6 9.6 0.00 0.00 0.00 51 1016.0
20260507013037 70 56 4.3 9.6 0.00 0.00 0.00 50 1016.0
20260507012517 71 23 4.3 9.6 0.00 0.00 0.00 50 1016.0
20260507012051 71 52 3.5 8.7 0.00 0.00 0.00 49 1016.0
20260507011516 72 42 3.5 8.7 0.00 0.00 0.00 49 1016.0
20260507011043 72 38 3.5 8.7 0.00 0.00 0.00 48 1016.0
20260507010601 72 90 3.5 8.7 0.00 0.00 0.00 49 1016.0
20260507010504 72 49 4.3 8.7 0.00 0.00 0.00 49 1015.9
20260507010043 72 40 3.5 10.4 0.00 0.00 0.00 48 1015.9
20260507005511 72 42 4.3 10.4 0.00 0.00 0.00 48 1015.8
20260507005035 72 56 5.2 10.4 0.00 0.00 0.00 48 1015.8
20260507004508 73 47 3.5 8.7 0.00 0.00 0.00 47 1015.8
20260507004045 73 64 3.5 7.8 0.00 0.00 0.00 47 1015.8
20260507003600 73 23 2.6 8.7 0.00 0.00 0.00 46 1015.7
20260507003502 73 84 2.6 8.7 0.00 0.00 0.00 46 1015.7
20260507003042 73 73 3.5 8.7 0.00 0.00 0.00 46 1015.8
20260507002557 73 52 2.6 11.3 0.00 0.00 0.00 47 1015.7
20260507002501 73 73 2.6 11.3 0.00 0.00 0.00 47 1015.7
20260507002039 73 28 4.3 11.3 0.00 0.00 0.00 47 1015.6
20260507001604 73 47 4.3 13.0 0.00 0.00 0.00 47 1015.5
20260507001035 73 35 5.2 13.0 0.00 0.00 0.00 47 1015.6
20260507000551 73 50 5.2 11.3 0.00 0.00 0.00 47 1015.4
20260507000034 73 42 5.2 11.3 0.00 0.00 0.00 46 1015.5
20260506235508 73 35 3.5 9.6 0.00 0.00 0.00 46 1015.4
20260506235027 74 43 4.3 9.6 0.00 0.00 0.00 46 1015.4
20260506234504 74 45 4.3 7.8 0.00 0.00 0.00 45 1015.4
20260506234025 74 55 4.3 11.3 0.00 0.00 0.00 45 1015.5
20260506233600 74 28 3.5 11.3 0.00 0.00 0.00 45 1015.4
20260506233501 74 47 5.2 11.3 0.00 0.00 0.00 45 1015.5
20260506233037 74 83 4.3 9.6 0.00 0.00 0.00 45 1015.5
20260506232515 74 49 4.3 10.4 0.00 0.00 0.00 44 1015.5
20260506232030 74 42 3.5 8.7 0.00 0.00 0.00 44 1015.5
20260506231506 74 52 5.2 10.4 0.00 0.00 0.00 44 1015.5
20260506231044 74 33 4.3 10.4 0.00 0.00 0.00 43 1015.6
20260506230504 75 50 5.2 10.4 0.00 0.00 0.00 43 1015.7
20260506230039 75 104 1.7 7.8 0.00 0.00 0.00 44 1015.6
20260506225600 74 71 2.6 7.8 0.00 0.00 0.00 44 1015.7
20260506225035 74 80 2.6 8.7 0.00 0.00 0.00 44 1015.7
20260506224516 74 51 2.6 8.7 0.00 0.00 0.00 43 1015.8
20260506224037 74 57 0.9 8.7 0.00 0.00 0.00 43 1015.9
20260506223519 74 52 3.5 8.7 0.00 0.00 0.00 43 1015.9
20260506223100 74 50 3.5 8.7 0.00 0.00 0.00 43 1015.9
20260506222515 74 100 3.5 8.7 0.00 0.00 0.00 42 1016.0
20260506222050 74 40 0.9 11.3 0.00 0.00 0.00 43 1016.1
20260506221526 73 42 3.5 11.3 0.00 0.00 0.00 42 1016.1
20260506221047 73 116 1.7 7.0 0.00 0.00 0.00 42 1016.2
20260506220531 73 51 1.7 7.0 0.00 0.00 0.00 42 1016.2
20260506220002 73 43 2.6 8.7 0.00 0.00 0.00 43 1016.3
20260506215539 72 97 4.3 8.7 0.00 0.00 0.00 42 1016.4
20260506215058 72 135 3.5 7.8 0.00 0.00 0.00 43 1016.5
20260506214539 71 26 3.5 9.6 0.00 0.00 0.00 44 1016.5
20260506214011 71 47 6.1 9.6 0.00 0.00 0.00 43 1016.6
20260506213527 72 43 1.7 8.7 0.00 0.00 0.00 44 1016.7
20260506213003 72 59 2.6 8.7 0.00 0.00 0.00 43 1016.8
20260506212541 71 59 2.6 10.4 0.00 0.00 0.00 43 1016.8
20260506212022 71 48 7.0 10.4 0.00 0.00 0.00 43 1016.9
20260506211540 71 41 1.7 9.6 0.00 0.00 0.00 43 1016.9
20260506211016 71 37 4.3 9.6 0.00 0.00 0.00 44 1016.8
20260506210536 71 51 5.2 9.6 0.00 0.00 0.00 43 1017.0
20260506210013 71 83 1.7 7.0 0.00 0.00 0.00 44 1016.9
20260506205545 71 36 2.6 6.1 0.00 0.00 0.00 44 1017.1
20260506205025 71 24 1.7 6.1 0.00 0.00 0.00 44 1017.1
20260506204558 70 51 2.6 7.0 0.00 0.00 0.00 45 1017.1
20260506204036 70 23 4.3 7.0 0.00 0.00 0.00 44 1017.2
20260506203513 70 39 2.6 7.0 0.00 0.00 0.00 46 1017.2
20260506203030 70 40 2.6 7.0 0.00 0.00 0.00 46 1017.3
20260506202507 69 40 2.6 7.0 0.00 0.00 0.00 46 1017.3
20260506202023 70 57 3.5 7.0 0.00 0.00 0.00 46 1017.4
20260506201559 70 45 0.9 5.2 0.00 0.00 0.00 46 1017.5
20260506201040 69 59 1.7 8.7 0.00 0.00 0.00 47 1017.5
20260506200556 68 35 3.5 8.7 0.00 0.00 0.00 47 1017.6
20260506200036 69 36 3.5 8.7 0.00 0.00 0.00 48 1017.6
20260506195517 68 45 3.5 8.7 0.00 0.00 0.00 47 1017.7
20260506195054 68 59 0.9 7.8 0.00 0.00 0.00 48 1017.8
20260506194514 68 24 1.7 7.8 0.00 0.00 0.00 47 1017.8
20260506194051 68 53 2.6 7.8 0.00 0.00 0.00 49 1017.9
20260506193532 68 54 2.6 9.6 0.00 0.00 0.00 48 1017.9
20260506193048 69 57 3.5 7.0 0.00 0.00 0.00 47 1017.9
20260506192527 69 349 0.9 6.1 0.00 0.00 0.00 48 1017.9
20260506192003 69 55 0.9 6.1 0.00 0.00 0.00 48 1018.1
20260506191526 68 47 0.9 4.3 0.00 0.00 0.00 49 1018.1
20260506191058 68 33 0.9 7.0 0.00 0.00 0.00 50 1018.2
20260506190538 67 2 2.6 7.0 0.00 0.00 0.00 50 1018.3
20260506190012 67 52 2.6 6.1 0.00 0.00 0.00 49 1018.3
20260506185547 67 16 1.7 6.1 0.00 0.00 0.00 51 1018.3
20260506185102 67 42 1.7 5.2 0.00 0.00 0.00 50 1018.3
20260506185001 67 344 0.9 5.2 0.00 0.00 0.00 50 1018.4
20260506184540 66 52 0.9 4.3 0.00 0.00 0.00 50 1018.5
20260506184024 66 54 0.9 4.3 0.00 0.00 0.00 51 1018.5
20260506183554 66 23 2.6 5.2 0.00 0.00 0.00 50 1018.6
20260506183040 65 90 1.7 6.1 0.00 0.00 0.00 52 1018.6
20260506182547 66 14 0.9 4.3 0.00 0.00 0.00 51 1018.7
20260506182023 66 241 0.0 5.2 0.00 0.00 0.00 51 1018.7
20260506181552 66 19 1.7 5.2 0.00 0.00 0.00 52 1018.8
20260506181028 65 124 0.0 3.5 0.00 0.00 0.00 53 1018.9
20260506180503 64 68 0.0 5.2 0.00 0.00 0.00 53 1018.9
20260506180023 64 14 2.6 5.2 0.00 0.00 0.00 55 1018.9
20260506175559 65 323 0.0 3.5 0.00 0.00 0.00 53 1018.9
20260506175503 65 323 0.9 3.5 0.00 0.00 0.00 53 1018.8
20260506175040 64 348 0.9 4.3 0.00 0.00 0.00 54 1018.9
20260506174559 64 213 1.7 4.3 0.00 0.00 0.00 55 1018.8
20260506174035 64 47 2.6 4.3 0.00 0.00 0.00 54 1018.8
20260506173511 64 201 0.0 1.7 0.00 0.00 0.00 55 1018.8
20260506173032 63 201 0.0 3.5 0.00 0.00 0.00 57 1018.8
20260506172513 62 352 0.9 4.3 0.00 0.00 0.00 56 1018.9
20260506172045 62 34 1.7 5.2 0.00 0.00 0.00 58 1018.9
20260506171601 62 68 0.9 5.2 0.00 0.00 0.00 58 1018.9
20260506171503 62 350 0.9 5.2 0.00 0.00 0.00 59 1018.9
20260506171040 61 267 1.7 5.2 0.00 0.00 0.00 58 1019.0
20260506170517 60 42 1.7 6.1 0.00 0.00 0.00 59 1019.0
20260506170044 61 42 2.6 6.1 0.00 0.00 0.00 58 1019.0
20260506165513 61 41 0.0 6.1 0.00 0.00 0.00 58 1019.0
20260506165031 61 39 0.9 6.1 0.00 0.00 0.00 58 1019.0
20260506164512 61 45 0.9 3.5 0.00 0.00 0.00 58 1018.9
20260506164045 61 33 0.0 3.5 0.00 0.00 0.00 59 1019.0
20260506163527 61 209 0.9 3.5 0.00 0.00 0.00 59 1019.0
20260506163051 61 270 0.0 3.5 0.00 0.00 0.00 58 1018.9
20260506162527 61 227 0.9 3.5 0.00 0.00 0.00 59 1019.0
20260506162101 61 222 0.0 2.6 0.00 0.00 0.00 60 1018.9
20260506161522 60 222 0.0 2.6 0.00 0.00 0.00 60 1018.9
20260506161053 60 220 0.0 2.6 0.00 0.00 0.00 60 1018.9
20260506160534 60 218 0.0 1.7 0.00 0.00 0.00 63 1018.9
20260506160018 58 218 0.0 1.7 0.00 0.00 0.00 64 1018.9
20260506155545 58 218 0.0 0.9 0.00 0.00 0.00 64 1018.9
20260506155059 58 218 0.0 1.7 0.00 0.00 0.00 65 1018.9
20260506155002 58 218 0.0 1.7 0.00 0.00 0.00 65 1018.9
20260506154540 58 218 0.0 1.7 0.00 0.00 0.00 66 1018.9
20260506154015 57 218 0.0 2.6 0.00 0.00 0.00 67 1018.9
20260506153551 57 218 0.9 2.6 0.00 0.00 0.00 67 1018.9
20260506153033 57 218 0.0 1.7 0.00 0.00 0.00 67 1018.8
20260506152549 57 218 0.0 2.6 0.00 0.00 0.00 68 1018.8
20260506152032 56 215 0.0 2.6 0.00 0.00 0.00 70 1018.8
20260506151601 56 215 0.0 1.7 0.00 0.00 0.00 70 1018.7
20260506151025 56 215 0.0 1.7 0.00 0.00 0.00 71 1018.8
20260506150600 55 215 0.0 1.7 0.00 0.00 0.00 72 1018.9
20260506150501 55 215 0.0 1.7 0.00 0.00 0.00 73 1018.9
20260506150038 55 214 0.0 2.6 0.00 0.00 0.00 73 1018.9
20260506145551 54 213 0.9 2.6 0.00 0.00 0.00 74 1018.9
20260506145034 54 227 0.9 2.6 0.00 0.00 0.00 74 1018.9
20260506144512 54 156 0.0 1.7 0.00 0.00 0.00 74 1018.9
20260506144038 53 156 0.0 1.7 0.00 0.00 0.00 75 1018.9
20260506143510 53 156 0.0 1.7 0.00 0.00 0.00 75 1018.9
20260506143051 53 156 0.0 1.7 0.00 0.00 0.00 75 1018.9
20260506142503 53 156 0.0 2.6 0.00 0.00 0.00 76 1018.8
20260506142041 53 156 0.0 1.7 0.00 0.00 0.00 76 1018.9
20260506141519 52 156 0.0 1.7 0.00 0.00 0.00 78 1018.9
20260506141039 52 156 0.0 1.7 0.00 0.00 0.00 77 1018.8
20260506140519 52 156 0.0 1.7 0.00 0.00 0.00 79 1018.8
20260506140104 51 156 0.0 1.7 0.00 0.00 0.00 80 1018.6
20260506135513 51 156 0.0 1.7 0.00 0.00 0.00 80 1018.7
20260506135049 50 156 0.0 0.9 0.00 0.00 0.00 81 1018.6
20260506134505 50 156 0.0 0.9 0.00 0.00 0.00 83 1018.6
20260506134043 50 156 0.0 0.9 0.00 0.00 0.00 83 1018.6
20260506133557 49 156 0.0 0.9 0.00 0.00 0.00 84 1018.5
20260506133040 49 283 0.0 0.9 0.00 0.00 0.00 85 1018.4
20260506132551 48 283 0.0 0.0 0.00 0.00 0.00 85 1018.3
20260506132031 47 283 0.0 0.0 0.00 0.00 0.00 85 1018.3
20260506131515 47 283 0.0 0.0 0.00 0.00 0.00 85 1018.1
20260506131032 47 283 0.0 0.0 0.00 0.00 0.00 85 1018.1
20260506130507 46 283 0.0 0.0 0.00 0.00 0.00 85 1018.1
20260506130028 46 283 0.0 0.0 0.00 0.00 0.00 85 1018.1
20260506125505 46 283 0.0 0.0 0.00 0.15 0.00 85 1018.1
20260506125025 46 283 0.0 0.0 0.00 0.15 0.00 85 1018.0
20260506124557 46 283 0.0 0.0 0.00 0.15 0.00 85 1018.0
20260506124017 46 283 0.0 0.0 0.00 0.15 0.00 85 1017.9
20260506123556 46 283 0.0 0.0 0.00 0.15 0.00 85 1017.9
20260506123036 46 283 0.0 0.0 0.00 0.15 0.00 85 1017.8
20260506122553 46 283 0.0 0.0 0.00 0.15 0.00 85 1017.8
20260506122033 46 282 0.0 0.0 0.00 0.15 0.00 84 1017.8
20260506121507 46 283 0.0 0.0 0.00 0.15 0.00 84 1017.8
20260506121029 46 283 0.0 0.0 0.00 0.15 0.00 84 1017.8
20260506120515 46 283 0.0 0.0 0.00 0.15 0.00 84 1017.8
20260506120032 46 283 0.0 0.9 0.00 0.15 0.00 84 1017.8
20260506115506 46 283 0.0 0.9 0.00 0.15 0.00 84 1017.8
20260506115043 46 283 0.0 0.0 0.00 0.15 0.00 84 1017.8
20260506114559 46 283 0.0 0.0 0.00 0.15 0.00 83 1017.8
20260506114501 46 283 0.0 0.0 0.00 0.15 0.00 83 1017.8
20260506114038 46 283 0.0 0.0 0.00 0.15 0.00 83 1017.8
20260506113515 47 283 0.0 0.0 0.00 0.15 0.00 83 1017.8
20260506113047 47 283 0.0 0.0 0.00 0.15 0.00 83 1017.8
20260506112511 47 283 0.0 0.0 0.00 0.15 0.00 83 1017.7
20260506112045 47 283 0.0 0.0 0.00 0.15 0.00 83 1017.7
20260506111521 47 283 0.0 0.0 0.00 0.15 0.00 83 1017.7
20260506111041 47 283 0.0 0.0 0.00 0.15 0.00 82 1017.7
20260506110524 47 283 0.0 0.0 0.00 0.15 0.00 82 1017.7
20260506110103 48 283 0.0 0.0 0.00 0.15 0.00 82 1017.6
20260506110002 48 283 0.0 0.0 0.00 0.15 0.00 82 1017.5
20260506105521 48 283 0.0 0.0 0.00 0.19 0.00 82 1017.6
20260506105056 48 283 0.0 0.0 0.00 0.19 0.00 82 1017.6
20260506104517 48 283 0.0 0.9 0.00 0.19 0.00 82 1017.6
20260506104049 48 283 0.0 0.9 0.00 0.19 0.00 82 1017.6
20260506103529 48 283 0.0 0.0 0.00 0.19 0.00 82 1017.6
20260506103013 48 283 0.0 0.0 0.00 0.19 0.00 82 1017.6
20260506102525 48 283 0.0 0.0 0.00 0.19 0.00 82 1017.6
20260506102059 48 283 0.0 0.0 0.00 0.19 0.00 82 1017.7
20260506102002 48 283 0.0 0.0 0.00 0.19 0.00 82 1017.7
20260506101542 48 283 0.0 0.0 0.00 0.19 0.00 82 1017.6
20260506101055 48 283 0.0 0.0 0.00 0.19 0.00 82 1017.6
20260506100518 49 283 0.0 0.0 0.00 0.19 0.00 82 1017.6
20260506100049 48 283 0.0 0.0 0.00 0.19 0.00 82 1017.6
20260506095536 48 283 0.0 0.0 0.00 0.19 0.00 81 1017.6
20260506095051 48 283 0.0 0.0 0.00 0.19 0.00 81 1017.6
20260506094529 48 283 0.0 0.0 0.00 0.19 0.00 80 1017.6
20260506094007 48 283 0.0 0.0 0.00 0.19 0.00 80 1017.6
20260506093527 49 283 0.0 0.0 0.00 0.19 0.00 80 1017.7
20260506093004 49 283 0.0 0.0 0.00 0.19 0.00 80 1017.7
20260506092523 49 283 0.0 0.0 0.00 0.19 0.00 80 1017.6
20260506092057 49 283 0.0 0.0 0.00 0.19 0.00 79 1017.7
20260506091538 49 283 0.0 0.0 0.00 0.19 0.00 79 1017.7
20260506091055 50 283 0.0 0.9 0.00 0.19 0.00 79 1017.7
20260506090536 50 283 0.0 0.9 0.00 0.19 0.00 79 1017.8
20260506090011 50 282 0.0 1.7 0.00 0.19 0.00 79 1017.9
20260506085530 50 283 0.0 1.7 0.00 0.19 0.00 79 1017.9
20260506085014 50 44 0.0 0.9 0.00 0.19 0.00 79 1017.9
20260506084548 50 45 0.0 0.9 0.00 0.19 0.00 79 1018.0
20260506084021 50 45 0.0 0.9 0.00 0.19 0.00 79 1018.0
20260506083541 50 45 0.0 0.9 0.00 0.19 0.00 78 1017.9
20260506083013 50 45 0.0 0.0 0.00 0.19 0.00 78 1018.0
20260506082532 50 45 0.0 0.0 0.00 0.19 0.00 77 1018.0
20260506082018 50 45 0.0 0.0 0.00 0.19 0.00 77 1018.0
20260506081547 51 45 0.0 0.9 0.00 0.19 0.00 77 1018.0
20260506081009 51 45 0.0 0.9 0.00 0.19 0.00 76 1018.0
20260506080544 51 45 0.0 0.9 0.00 0.19 0.00 75 1018.0